Skip Page Navigation
NASA JPL Caltech
NASA Logo - Jet Propulsion Laboratory + View the NASA Portal
+ Center for Near-Earth Object Studies
JPL Home Earth Solar System Stars & Galaxies Technology
JPL Solar System Dynamics
BODIES ORBITS EPHEMERIDES TOOLS PHYSICAL DATA DISCOVERY FAQ SITE MAP
IMPORTANT: The SSD Announcement email list is now available. Major changes are coming in the near future, including possible hostname and/or URL changes. To be notified of such changes, subscribe to this email list.

Please visit this page for more details.


JPL Small-Body Database Browser
Search: [ help ]  
136711 (1995 UC11)
Classification: Main-belt Asteroid          SPK-ID: 2136711
Ephemeris | Orbit Diagram | Orbital Elements | Mission Design | Physical Parameters | Discovery Circumstances ]

[ show orbit diagram ]
Orbital Elements at Epoch 2458600.5 (2019-Apr-27.0) TDB
Reference: JPL 17 (heliocentric ecliptic J2000)
 Element Value Uncertainty (1-sigma)   Units 
e .1972842175198912 3.9069e-08  
a 2.359305168266023 1.1104e-08 au
q 1.893851494254025 9.2759e-08 au
i 1.105935106633504 4.4927e-06 deg
node 275.4333404523977 0.00030558 deg
peri 33.32138810102563 0.00030598 deg
M 222.641488625749 1.8279e-05 deg
tp 2459105.542214024323
(2020-Sep-13.04221402)
6.92e-05 TDB
period 1323.654393380672
3.62
9.3443e-06
2.558e-08
d
yr
n .2719743173144645 1.92e-09 deg/d
Q 2.82475884227802 1.3294e-08 au
  Orbit Determination Parameters
   # obs. used (total)      281  
   data-arc span      9079 days (24.86 yr)  
   first obs. used      1994-04-02  
   last obs. used      2019-02-09  
   planetary ephem.      DE431  
   SB-pert. ephem.      SB431-N16  
   condition code      0  
   norm. resid. RMS      .58781  
   source      ORB  
   producer      Otto Matic  
   solution date      2019-Jul-13 06:45:14  

Additional Information
 Earth MOID = .878495 au 
 Jupiter MOID = 2.43141 au 
 T_jup = 3.525 
[ show covariance matrix ]

Ephemeris | Orbit Diagram | Orbital Elements | Mission Design | Physical Parameters | Discovery Circumstances ]

Physical Parameter Table
Parameter Symbol Value Units Sigma Reference Notes
absolute magnitude H 17.0   n/a MPO432828  

136711 (1995 UC11)          Discovered 1995-Oct-17 by Spacewatch at Kitt Peak
Reference: 20061205/Numbers.arcLast Updated: 2006-12-13

Alternate Designations
 1995 UC11 = 2002 NL52 
Ephemeris | Orbit Diagram | Orbital Elements | Mission Design | Physical Parameters | Discovery Circumstances ]
ABOUT SSD CREDITS/AWARDS PRIVACY/COPYRIGHT GLOSSARY LINKS
FirstGov
(server date/time)  
NASA Home Page
Site Manager:   Ryan S. Park
Webmaster  Alan B. Chamberlin